[[{"header":{"parameterUnit":"m.s-1","parameterCategory":2,"la1":30.2991,"la2":30.254,"lo1":-89.0895,"lo2":-89.0444,"dy":0.0017,"dx":0.0017,"nx":28,"ny":28,"refTime":"2023-07-19T21:00:00:Z","depth":"0","parameterNumber":2,"parameterNumberName":"U-component_of_CURRENTS"},"data":[0,0,0,0,0,0,0,0,0,0,0,0,0,0,0,0,0,0,0,0,0,0,0,0,0,0,0,0,0,0,0,0,0,0,0,0,0,0,0,0,0,0,0,0,0,0,0,0,0,0,0,0,0,0,0,0,0,0,-0.0603,-0.0603,0,-0.0656,-0.0658,-0.066,-0.0734,-0.0734,-0.0734,-0.0734,-0.068,-0.0679,-0.0677,0,0,0,0,0,0,0,0,0,0,0,0,0,-0.0588,-0.0589,-0.0603,-0.0603,-0.0602,-0.0656,-0.0658,-0.066,-0.0734,-0.0734,-0.0734,-0.0734,-0.068,-0.0679,-0.0677,0,0,0,0,0,0,0,0,0,0,0,0,0,-0.0626,-0.0589,-0.0603,-0.0635,-0.0637,-0.0655,-0.0658,-0.0661,-0.0734,-0.0734,-0.0734,-0.0734,-0.0681,-0.0679,-0.0677,-0.0664,0,0,-0.067,-0.0669,0,0,0,0,0,0,0,0,-0.0624,-0.0629,-0.0631,-0.0633,-0.0635,-0.0676,-0.0632,-0.0652,-0.0734,-0.0712,-0.0734,-0.0734,-0.0659,-0.0659,-0.0691,-0.0661,-0.0659,-0.067,-0.0669,-0.0668,-0.0667,0,0,0,0,0,0,0,-0.0621,-0.0627,-0.0638,-0.063,-0.0632,-0.0653,-0.066,-0.0638,-0.0694,-0.0714,-0.0716,-0.07,-0.0662,-0.0693,-0.0689,-0.0658,-0.067,-0.0668,-0.0667,-0.0666,-0.059,-0.0589,0,0,0,0,0,0,-0.0586,-0.0624,-0.0636,-0.0638,-0.0614,-0.0652,-0.0661,-0.0674,-0.0697,-0.0697,-0.0699,-0.0703,-0.0697,-0.0692,-0.0687,-0.0664,-0.0668,-0.0666,-0.0665,-0.0591,-0.059,-0.0589,0,0,0,0,0,0,-0.0586,-0.0588,-0.0634,-0.062,-0.0625,-0.0651,-0.0667,-0.0675,-0.07,-0.0684,-0.0686,-0.0713,-0.0696,-0.069,-0.0661,-0.0662,-0.0665,-0.0663,-0.0591,-0.059,-0.0589,-0.0621,0,0,0,0,0,0,-0.0586,-0.0589,-0.0592,-0.0618,-0.0624,-0.0635,-0.0666,-0.0676,-0.0684,-0.0689,-0.0696,-0.0692,-0.0696,-0.0664,-0.0659,-0.0659,-0.0661,-0.0592,-0.0591,-0.059,-0.0621,-0.0621,-0.0621,0,0,0,0,0,-0.0586,-0.0578,-0.0593,-0.0593,-0.0627,-0.0633,-0.064,-0.0667,-0.0684,-0.0693,-0.0695,-0.0692,-0.0651,-0.0662,-0.0656,-0.0655,-0.0593,-0.0591,-0.059,-0.0621,-0.0621,-0.0621,0,0,0,0,0,0,-0.0572,-0.0584,-0.0601,-0.0599,-0.0609,-0.064,-0.0633,-0.0661,-0.0678,-0.0668,-0.0681,-0.0676,-0.0658,-0.064,-0.0651,-0.0626,-0.0622,-0.0619,-0.0647,-0.0647,-0.0647,-0.0642,-0.066,0,0,0,0,0,-0.0567,-0.0559,-0.0584,-0.0572,-0.0577,-0.0609,-0.0614,-0.063,-0.0638,-0.0649,-0.0662,-0.0655,-0.0648,-0.0633,-0.0626,-0.0601,-0.0595,-0.0594,-0.0595,-0.0595,-0.0584,-0.0596,-0.0597,-0.0583,-0.0583,-0.0583,0,0,-0.0547,-0.0551,-0.0545,-0.0566,-0.0576,-0.0584,-0.0616,-0.0605,-0.0616,-0.0631,-0.0648,-0.0656,-0.0642,-0.0633,-0.0621,-0.0615,-0.0593,-0.0593,-0.0594,-0.0582,-0.0594,-0.0596,-0.0598,-0.0582,-0.0582,-0.0583,0,0,-0.0509,-0.0518,-0.0514,-0.0524,-0.0523,-0.0539,-0.0533,-0.0569,-0.0593,-0.059,-0.0619,-0.0627,-0.0604,-0.0625,-0.062,-0.0606,-0.06,-0.0595,-0.0587,-0.0599,-0.0601,-0.0602,-0.0592,-0.0592,-0.0589,-0.0589,-0.0589,0,-0.049,-0.0501,-0.0509,-0.0514,-0.0508,-0.0519,-0.0521,-0.0541,-0.0566,-0.0584,-0.0579,-0.0604,-0.0603,-0.0613,-0.0618,-0.061,-0.0603,-0.0595,-0.0602,-0.0603,-0.0604,-0.0593,-0.0593,-0.0591,-0.059,-0.059,-0.059,0,-0.0473,-0.0477,-0.0464,-0.0479,-0.0475,-0.0463,-0.0481,-0.0497,-0.0509,-0.0539,-0.0556,-0.0571,-0.0588,-0.0595,-0.0597,-0.0613,-0.0601,-0.0612,-0.0609,-0.0608,-0.0595,-0.0595,-0.0592,-0.0592,-0.0592,-0.0591,0,0,-0.0444,-0.0457,-0.0452,-0.0456,-0.0457,-0.0447,-0.0452,-0.0476,-0.0491,-0.051,-0.0539,-0.0552,-0.0578,-0.0574,-0.0599,-0.0608,-0.0621,-0.0607,-0.0607,-0.0609,-0.0627,-0.059,-0.0585,-0.0637,-0.0637,-0.0638,-0.0614,0,-0.0437,-0.0432,-0.0445,-0.0426,-0.0424,-0.0435,-0.0449,-0.046,-0.0473,-0.0505,-0.0525,-0.0547,-0.0563,-0.0575,-0.059,-0.0617,-0.0621,-0.0624,-0.0615,-0.0614,-0.0593,-0.0584,-0.0582,-0.0558,-0.0614,-0.0614,-0.0614,0,-0.0429,-0.0426,-0.0419,-0.0416,-0.0419,-0.0411,-0.0418,-0.0434,-0.0473,-0.0491,-0.0513,-0.0531,-0.0557,-0.0566,-0.0593,-0.0593,-0.0605,-0.0618,-0.0618,-0.0569,-0.0576,-0.0567,-0.0555,-0.0483,-0.0613,-0.0613,-0.0613,0,-0.0406,-0.04,-0.0388,-0.0387,-0.0399,-0.0399,-0.04,-0.0429,-0.0455,-0.0481,-0.0491,-0.0521,-0.0537,-0.0552,-0.0568,-0.0583,-0.0583,-0.0613,-0.0586,-0.0583,-0.0569,-0.0565,-0.0497,-0.0625,-0.0625,-0.0625,-0.0625,0,-0.0403,-0.0399,-0.0372,-0.0377,-0.0362,-0.0369,-0.038,-0.0398,-0.0435,-0.0461,-0.0481,-0.05,-0.0535,-0.0539,-0.0554,-0.0551,-0.057,-0.0573,-0.0575,-0.0577,-0.0573,-0.05,-0.0374,-0.0624,-0.0624,-0.0624,-0.0625,0,-0.0419,-0.0404,-0.0385,-0.0368,-0.036,-0.0344,-0.0362,-0.0382,-0.041,-0.0437,-0.0442,-0.0486,-0.0488,-0.0495,-0.0521,-0.0532,-0.0499,-0.0529,-0.0512,-0.0512,-0.0427,-0.03,-0.0272,-0.0325,-0.0503,-0.0501,-0.0501,0,-0.0436,-0.0428,-0.0372,-0.0348,-0.0346,-0.0332,-0.0344,-0.0369,-0.0391,-0.043,-0.0444,-0.045,-0.0459,-0.0458,-0.0477,-0.0468,-0.0443,-0.0456,-0.0492,-0.0402,-0.0265,-0.0311,-0.0364,-0.0486,-0.0485,-0.0484,-0.0484,0,-0.0463,-0.0433,-0.0415,-0.0368,-0.0341,-0.0331,-0.0334,-0.0344,-0.0385,-0.0394,-0.0414,-0.0417,-0.0433,-0.0437,-0.0419,-0.0423,-0.0402,-0.044,-0.0366,-0.024,-0.0266,-0.0327,-0.0501,-0.0477,-0.0478,-0.0478,-0.0479,-0.0479,-0.0469,-0.0453,-0.0409,-0.0372,-0.0346,-0.0325,-0.031,-0.0317,-0.0327,-0.0321,-0.0365,-0.0336,-0.0381,-0.0371,-0.0364,-0.0325,-0.035,-0.031,-0.0163,-0.0226,-0.0267,-0.0403,-0.0369,-0.0369,-0.0369,-0.0369,-0.0369,0,-0.0476,-0.0462,-0.0421,-0.0365,-0.0348,-0.033,-0.0312,-0.0284,-0.0266,-0.0251,-0.0248,-0.0238,-0.0235,-0.0248,-0.0234,-0.0108,-0.0211,0.0002,-0.0056,-0.0132,-0.0268,-0.0257,-0.0174,-0.0174,-0.0174,-0.0174,-0.0175,-0.0175,-0.0476,-0.0451,-0.0432,-0.0378,-0.0351,-0.0313,-0.0289,-0.0218,-0.0183,-0.011,-0.0082,-0.0093,-0.0039,0.0099,0.0187,0.0206,0.0184,0.0284,0.0249,0.0231,0.021,0.019,0.0219,0.0401,0.0402,0.0186,0.0187,0.0188]},{"header":{"parameterUnit":"m.s-1","parameterCategory":2,"la1":30.2991,"la2":30.254,"lo1":-89.0895,"lo2":-89.0444,"dy":0.0017,"dx":0.0017,"nx":28,"ny":28,"refTime":"2023-07-19T21:00:00:Z","depth":"0","parameterNumber":3,"parameterNumberName":"V-component_of_CURRENTS"},"data":[0,0,0,0,0,0,0,0,0,0,0,0,0,0,0,0,0,0,0,0,0,0,0,0,0,0,0,0,0,0,0,0,0,0,0,0,0,0,0,0,0,0,0,0,0,0,0,0,0,0,0,0,0,0,0,0,0,0,-0.0546,-0.0546,0,-0.0555,-0.0555,-0.0555,-0.0556,-0.0556,-0.0556,-0.0556,-0.054,-0.0539,-0.0539,0,0,0,0,0,0,0,0,0,0,0,0,0,-0.0459,-0.0461,-0.0546,-0.0546,-0.0546,-0.0555,-0.0555,-0.0555,-0.0556,-0.0556,-0.0556,-0.0556,-0.054,-0.0539,-0.0539,0,0,0,0,0,0,0,0,0,0,0,0,0,-0.0485,-0.0462,-0.0546,-0.0548,-0.0548,-0.0555,-0.0555,-0.0555,-0.0556,-0.0556,-0.0556,-0.0556,-0.054,-0.054,-0.0539,-0.0537,0,0,-0.0537,-0.0537,0,0,0,0,0,0,0,0,-0.0483,-0.0488,-0.0547,-0.0548,-0.0548,-0.0554,-0.0518,-0.0548,-0.0556,-0.0552,-0.0556,-0.0556,-0.0543,-0.0542,-0.0543,-0.0536,-0.0535,-0.0537,-0.0537,-0.0537,-0.0536,0,0,0,0,0,0,0,-0.0482,-0.0487,-0.0549,-0.0548,-0.0548,-0.0524,-0.0528,-0.0524,-0.0547,-0.0553,-0.0553,-0.0555,-0.0543,-0.0544,-0.0543,-0.0535,-0.0537,-0.0537,-0.0536,-0.0536,-0.0527,-0.0528,0,0,0,0,0,0,-0.0486,-0.0486,-0.0548,-0.0549,-0.0516,-0.0526,-0.0531,-0.0552,-0.0548,-0.0547,-0.0555,-0.0555,-0.0545,-0.0544,-0.0542,-0.0548,-0.0537,-0.0536,-0.0536,-0.0527,-0.0528,-0.0528,0,0,0,0,0,0,-0.0484,-0.0492,-0.0548,-0.0516,-0.0522,-0.0528,-0.0552,-0.0552,-0.0556,-0.055,-0.0549,-0.0558,-0.0545,-0.0543,-0.0544,-0.0547,-0.0536,-0.0535,-0.0527,-0.0527,-0.0528,-0.0554,0,0,0,0,0,0,-0.0482,-0.0492,-0.0509,-0.0518,-0.0524,-0.0563,-0.0552,-0.0553,-0.0558,-0.0558,-0.0552,-0.0551,-0.0545,-0.0545,-0.0543,-0.0546,-0.0535,-0.0527,-0.0527,-0.0528,-0.0553,-0.0555,-0.0557,0,0,0,0,0,-0.0479,-0.0513,-0.0511,-0.0518,-0.0549,-0.0564,-0.0566,-0.0568,-0.0558,-0.0569,-0.056,-0.0551,-0.0545,-0.0545,-0.0543,-0.0546,-0.0527,-0.0527,-0.0527,-0.0552,-0.0555,-0.0557,0,0,0,0,0,0,-0.0489,-0.0517,-0.0514,-0.0556,-0.056,-0.0565,-0.0572,-0.057,-0.0571,-0.0567,-0.0555,-0.0554,-0.0555,-0.0546,-0.0546,-0.0543,-0.0533,-0.0533,-0.0552,-0.0555,-0.0557,-0.0569,-0.0534,0,0,0,0,0,-0.0498,-0.053,-0.0539,-0.0571,-0.0569,-0.0567,-0.0572,-0.0575,-0.0576,-0.0576,-0.057,-0.056,-0.0554,-0.0552,-0.0547,-0.0547,-0.0542,-0.0546,-0.0548,-0.055,-0.0558,-0.0547,-0.0548,-0.0529,-0.0528,-0.0528,0,0,-0.05,-0.0529,-0.054,-0.0575,-0.0571,-0.058,-0.057,-0.0582,-0.0589,-0.0573,-0.0577,-0.0568,-0.0555,-0.0557,-0.0556,-0.0551,-0.0555,-0.055,-0.0551,-0.0559,-0.0547,-0.0549,-0.0551,-0.0529,-0.0529,-0.0529,0,0,-0.0523,-0.0551,-0.0571,-0.0584,-0.0596,-0.0596,-0.06,-0.0603,-0.0601,-0.0603,-0.0592,-0.0589,-0.0576,-0.0575,-0.0569,-0.0578,-0.0565,-0.057,-0.0591,-0.0579,-0.0581,-0.0583,-0.0589,-0.059,-0.0571,-0.0571,-0.0571,0,-0.0523,-0.0564,-0.0576,-0.0601,-0.0606,-0.0603,-0.0609,-0.0614,-0.062,-0.0617,-0.0608,-0.0594,-0.0586,-0.0588,-0.0593,-0.0583,-0.0578,-0.0584,-0.0583,-0.0584,-0.0585,-0.0591,-0.0592,-0.0572,-0.0572,-0.0572,-0.0572,0,-0.0551,-0.0584,-0.0597,-0.0625,-0.063,-0.0646,-0.0643,-0.0653,-0.0641,-0.0638,-0.0635,-0.0626,-0.0618,-0.0613,-0.0606,-0.061,-0.0606,-0.0587,-0.0579,-0.0589,-0.0594,-0.0595,-0.0574,-0.0574,-0.0573,-0.0573,0,0,-0.0555,-0.0604,-0.0612,-0.0621,-0.0646,-0.0653,-0.0664,-0.0666,-0.0672,-0.0669,-0.0668,-0.0661,-0.0653,-0.0647,-0.0638,-0.0634,-0.064,-0.0617,-0.0616,-0.0627,-0.0627,-0.0685,-0.0692,-0.0616,-0.0616,-0.0616,-0.0631,0,-0.0568,-0.0616,-0.0634,-0.066,-0.0669,-0.0676,-0.0685,-0.0691,-0.0686,-0.0691,-0.0679,-0.0673,-0.0665,-0.066,-0.0657,-0.0639,-0.0643,-0.0639,-0.0612,-0.0612,-0.0666,-0.0695,-0.0753,-0.0776,-0.0632,-0.0632,-0.0633,0,-0.0587,-0.062,-0.0648,-0.0674,-0.0674,-0.0691,-0.07,-0.0707,-0.0716,-0.071,-0.071,-0.0696,-0.0698,-0.0681,-0.0671,-0.0666,-0.0655,-0.0644,-0.0644,-0.0692,-0.0673,-0.074,-0.0784,-0.0654,-0.0634,-0.0634,-0.0634,0,-0.0577,-0.0628,-0.0651,-0.0666,-0.0693,-0.0703,-0.0708,-0.0716,-0.0719,-0.0725,-0.0729,-0.0719,-0.0718,-0.0697,-0.0682,-0.0669,-0.0671,-0.0644,-0.0693,-0.0697,-0.074,-0.0748,-0.0661,-0.0643,-0.0643,-0.0643,-0.0643,0,-0.059,-0.0612,-0.0658,-0.0672,-0.0695,-0.0704,-0.0719,-0.0727,-0.0739,-0.0751,-0.074,-0.0758,-0.072,-0.0715,-0.0692,-0.071,-0.0677,-0.0715,-0.0709,-0.0753,-0.0761,-0.0646,-0.0541,-0.0644,-0.0644,-0.0644,-0.0644,0,-0.0579,-0.0615,-0.0642,-0.0678,-0.0692,-0.0705,-0.0728,-0.0742,-0.0754,-0.0774,-0.0775,-0.0784,-0.0791,-0.0765,-0.0739,-0.0739,-0.0669,-0.0745,-0.0813,-0.0817,-0.0757,-0.0652,-0.0561,-0.0457,-0.0808,-0.081,-0.0811,0,-0.0588,-0.0604,-0.064,-0.0662,-0.0684,-0.0712,-0.073,-0.0747,-0.0768,-0.08,-0.0816,-0.0831,-0.086,-0.0863,-0.0881,-0.0878,-0.0713,-0.0901,-0.0896,-0.0779,-0.0656,-0.0567,-0.0476,-0.0959,-0.0961,-0.0963,-0.0965,0,-0.0593,-0.0602,-0.0613,-0.0655,-0.0688,-0.0718,-0.0752,-0.0773,-0.0801,-0.0827,-0.0877,-0.0901,-0.0963,-0.1012,-0.1019,-0.1009,-0.079,-0.0945,-0.0794,-0.0754,-0.068,-0.0569,-0.0921,-0.0983,-0.0981,-0.098,-0.0979,-0.0978,-0.0594,-0.0598,-0.0614,-0.0657,-0.0687,-0.0728,-0.0746,-0.0791,-0.0828,-0.0867,-0.0915,-0.0959,-0.1046,-0.1103,-0.1081,-0.103,-0.0927,-0.0966,-0.0847,-0.0767,-0.0669,-0.108,-0.1152,-0.1151,-0.1151,-0.115,-0.115,0,-0.0598,-0.0601,-0.0624,-0.0667,-0.0698,-0.0717,-0.0764,-0.0785,-0.0833,-0.088,-0.093,-0.1021,-0.1073,-0.1077,-0.108,-0.0947,-0.0845,-0.0808,-0.0664,-0.0571,-0.0933,-0.0943,-0.101,-0.101,-0.101,-0.101,-0.101,-0.101,-0.0598,-0.0614,-0.0625,-0.0683,-0.0708,-0.074,-0.0761,-0.079,-0.0827,-0.0888,-0.0933,-0.0967,-0.089,-0.0868,-0.0755,-0.0716,-0.0412,-0.0451,-0.0241,-0.0472,-0.0476,-0.048,-0.0466,-0.0431,-0.043,0.0074,0.0079,0.0082]}],[{"header":{"parameterUnit":"m.s-1","parameterCategory":2,"la1":30.2991,"la2":30.254,"lo1":-89.0895,"lo2":-89.0444,"dy":0.0017,"dx":0.0017,"nx":28,"ny":28,"refTime":"2023-07-19T21:00:00:Z","depth":"2","parameterNumber":2,"parameterNumberName":"U-component_of_CURRENTS"},"data":[0,0,0,0,0,0,0,0,0,0,0,0,0,0,0,0,0,0,0,0,0,0,0,0,0,0,0,0,0,0,0,0,0,0,0,0,0,0,0,0,0,0,0,0,0,0,0,0,0,0,0,0,0,0,0,0,0,0,-0.2261,-0.226,0,-0.2172,-0.2171,-0.217,-0.2165,-0.2166,-0.2167,-0.2168,-0.2019,-0.2015,-0.201,0,0,0,0,0,0,0,0,0,0,0,0,0,-0.2382,-0.238,-0.2261,-0.226,-0.2259,-0.2172,-0.2171,-0.217,-0.2165,-0.2166,-0.2167,-0.2169,-0.2021,-0.2015,-0.2009,0,0,0,0,0,0,0,0,0,0,0,0,0,-0.2314,-0.2379,-0.2261,-0.2247,-0.2245,-0.2173,-0.2171,-0.2169,-0.2164,-0.2166,-0.2168,-0.2169,-0.2023,-0.2016,-0.2008,-0.1928,0,0,-0.1985,-0.1982,0,0,0,0,0,0,0,0,-0.2318,-0.2309,-0.225,-0.2248,-0.2245,-0.2182,-0.2159,-0.2086,-0.2164,-0.2194,-0.2168,-0.217,-0.2068,-0.2057,-0.2036,-0.1921,-0.1915,-0.1985,-0.198,-0.1977,-0.1975,0,0,0,0,0,0,0,-0.2322,-0.2313,-0.2225,-0.2249,-0.2246,-0.223,-0.2222,-0.2145,-0.212,-0.2191,-0.2191,-0.2182,-0.2066,-0.2043,-0.2032,-0.1913,-0.1985,-0.1978,-0.1974,-0.1971,-0.1727,-0.1725,0,0,0,0,0,0,-0.2335,-0.2317,-0.2227,-0.2222,-0.2287,-0.2226,-0.2218,-0.22,-0.2122,-0.2113,-0.2181,-0.2182,-0.2055,-0.2041,-0.2026,-0.1958,-0.1977,-0.197,-0.1966,-0.1729,-0.1727,-0.1724,0,0,0,0,0,0,-0.2338,-0.2328,-0.2231,-0.2269,-0.2256,-0.2223,-0.2202,-0.2197,-0.2177,-0.2116,-0.2105,-0.2168,-0.2056,-0.2037,-0.1962,-0.1951,-0.1967,-0.196,-0.1731,-0.1728,-0.1725,-0.1801,0,0,0,0,0,0,-0.2342,-0.2329,-0.231,-0.227,-0.2254,-0.2186,-0.2201,-0.2194,-0.217,-0.2171,-0.21,-0.2088,-0.2055,-0.1973,-0.1954,-0.1941,-0.1954,-0.1734,-0.173,-0.1726,-0.1801,-0.1801,-0.1801,0,0,0,0,0,-0.2346,-0.2308,-0.231,-0.2299,-0.2233,-0.2185,-0.2175,-0.2157,-0.2168,-0.2148,-0.2108,-0.209,-0.1936,-0.1965,-0.1944,-0.1929,-0.1736,-0.1731,-0.1727,-0.1801,-0.1801,-0.1801,0,0,0,0,0,0,-0.2332,-0.2303,-0.2304,-0.2255,-0.2226,-0.2185,-0.2153,-0.2152,-0.2104,-0.2106,-0.2061,-0.2044,-0.1974,-0.1926,-0.196,-0.1842,-0.1833,-0.1824,-0.1897,-0.1896,-0.1896,-0.1876,-0.1948,0,0,0,0,0,-0.2325,-0.2298,-0.227,-0.2226,-0.2212,-0.2185,-0.2162,-0.2157,-0.2116,-0.2098,-0.2053,-0.1994,-0.1933,-0.19,-0.1832,-0.1762,-0.171,-0.1734,-0.1734,-0.1735,-0.17,-0.1626,-0.1617,-0.171,-0.171,-0.171,0,0,-0.2304,-0.2285,-0.2266,-0.2224,-0.2196,-0.2157,-0.2174,-0.2138,-0.2109,-0.2083,-0.2018,-0.1985,-0.1911,-0.1846,-0.181,-0.1811,-0.1685,-0.173,-0.1732,-0.1695,-0.162,-0.1612,-0.1604,-0.1707,-0.1707,-0.1708,0,0,-0.2245,-0.2234,-0.2194,-0.2172,-0.2142,-0.2129,-0.2122,-0.2087,-0.2077,-0.2017,-0.1998,-0.1948,-0.1855,-0.1807,-0.177,-0.1712,-0.1685,-0.1709,-0.1698,-0.1629,-0.1621,-0.1614,-0.1566,-0.1553,-0.1715,-0.1715,-0.1715,0,-0.2224,-0.2174,-0.2171,-0.2129,-0.2111,-0.2117,-0.2078,-0.2052,-0.2002,-0.199,-0.1999,-0.1872,-0.1823,-0.1741,-0.1739,-0.1711,-0.1685,-0.1721,-0.1633,-0.1624,-0.1615,-0.1567,-0.1552,-0.1718,-0.1718,-0.1717,-0.1717,0,-0.2134,-0.2104,-0.2075,-0.2036,-0.2015,-0.1982,-0.1968,-0.1949,-0.1952,-0.1937,-0.1872,-0.1813,-0.1749,-0.1733,-0.1721,-0.1642,-0.165,-0.1647,-0.1647,-0.1611,-0.1562,-0.1546,-0.1722,-0.1721,-0.172,-0.172,0,0,-0.206,-0.2026,-0.2013,-0.2002,-0.1976,-0.195,-0.1914,-0.1887,-0.1865,-0.1832,-0.1787,-0.171,-0.172,-0.1674,-0.1661,-0.16,-0.154,-0.1614,-0.1609,-0.159,-0.1414,-0.1356,-0.1333,-0.155,-0.1547,-0.1544,-0.1418,0,-0.1994,-0.1926,-0.1925,-0.1867,-0.1838,-0.1856,-0.1822,-0.1806,-0.1797,-0.1755,-0.172,-0.1663,-0.1688,-0.1673,-0.1623,-0.1549,-0.1494,-0.1574,-0.1426,-0.142,-0.1394,-0.131,-0.1247,-0.1122,-0.1401,-0.1398,-0.1396,0,-0.1899,-0.1878,-0.1819,-0.1814,-0.1802,-0.1776,-0.1758,-0.1731,-0.1696,-0.1692,-0.1661,-0.1641,-0.1563,-0.1582,-0.1447,-0.1514,-0.1463,-0.1405,-0.1399,-0.1294,-0.1329,-0.1192,-0.1081,-0.1368,-0.137,-0.1372,-0.1374,0,-0.1843,-0.1804,-0.177,-0.1758,-0.1742,-0.1735,-0.1735,-0.1713,-0.1693,-0.1654,-0.1628,-0.1566,-0.1507,-0.1439,-0.1365,-0.141,-0.12,-0.1244,-0.1135,-0.1133,-0.1012,-0.1003,-0.1116,-0.1116,-0.1116,-0.1116,-0.1117,0,-0.1764,-0.1727,-0.1748,-0.1718,-0.1694,-0.1706,-0.1673,-0.1669,-0.1643,-0.1597,-0.1602,-0.153,-0.1466,-0.1368,-0.1325,-0.117,-0.1174,-0.1086,-0.1071,-0.1039,-0.1034,-0.1189,-0.1199,-0.1112,-0.1113,-0.1114,-0.1114,0,-0.1666,-0.1679,-0.1643,-0.1651,-0.166,-0.1639,-0.1647,-0.1621,-0.1615,-0.1548,-0.1534,-0.147,-0.1344,-0.1273,-0.112,-0.1083,-0.096,-0.0909,-0.0886,-0.0868,-0.0957,-0.0973,-0.0763,-0.0759,-0.0756,-0.0753,-0.0751,0,-0.1602,-0.1573,-0.1589,-0.1589,-0.1589,-0.1585,-0.1581,-0.1598,-0.1572,-0.1499,-0.145,-0.1327,-0.1227,-0.1004,-0.0911,-0.079,-0.0837,-0.0642,-0.0685,-0.0901,-0.0909,-0.0929,-0.0948,-0.0574,-0.057,-0.0568,-0.0565,0,-0.1478,-0.1491,-0.1469,-0.1485,-0.1491,-0.1497,-0.15,-0.148,-0.1477,-0.1424,-0.132,-0.1233,-0.1034,-0.0865,-0.0708,-0.0622,-0.0664,-0.0579,-0.0759,-0.0681,-0.0714,-0.0726,-0.0752,-0.054,-0.0543,-0.0545,-0.0546,-0.0547,-0.1388,-0.1356,-0.1358,-0.1357,-0.1385,-0.1403,-0.1372,-0.1379,-0.1334,-0.1235,-0.1195,-0.106,-0.0909,-0.0671,-0.0545,-0.0441,-0.0486,-0.0427,-0.044,-0.0454,-0.0462,-0.0488,-0.0275,-0.0276,-0.0277,-0.0277,-0.0278,0,-0.1273,-0.125,-0.1238,-0.1245,-0.1248,-0.1301,-0.1299,-0.1255,-0.1182,-0.1137,-0.1034,-0.0838,-0.0674,-0.0561,-0.0394,-0.0284,-0.0309,-0.0217,-0.0287,-0.0309,-0.0329,-0.0336,-0.0113,-0.0113,-0.0113,-0.0113,0,0,-0.1203,-0.1144,-0.1134,-0.1103,-0.1123,-0.1103,-0.1089,-0.1042,-0.101,-0.0907,-0.0852,-0.0783,-0.0672,-0.0512,-0.0341,-0.0246,-0.0301,-0.0198,-0.0325,-0.0441,-0.0464,-0.0422,-0.0452,0,0,0,0,0]},{"header":{"parameterUnit":"m.s-1","parameterCategory":2,"la1":30.2991,"la2":30.254,"lo1":-89.0895,"lo2":-89.0444,"dy":0.0017,"dx":0.0017,"nx":28,"ny":28,"refTime":"2023-07-19T21:00:00:Z","depth":"2","parameterNumber":3,"parameterNumberName":"V-component_of_CURRENTS"},"data":[0,0,0,0,0,0,0,0,0,0,0,0,0,0,0,0,0,0,0,0,0,0,0,0,0,0,0,0,0,0,0,0,0,0,0,0,0,0,0,0,0,0,0,0,0,0,0,0,0,0,0,0,0,0,0,0,0,0,0.0484,0.0485,0,0.0549,0.055,0.0551,0.057,0.0569,0.0569,0.0568,0.0679,0.0683,0.0686,0,0,0,0,0,0,0,0,0,0,0,0,0,0.0461,0.0461,0.0484,0.0485,0.0485,0.0549,0.055,0.0551,0.057,0.0569,0.0568,0.0568,0.0678,0.0682,0.0687,0,0,0,0,0,0,0,0,0,0,0,0,0,0.0496,0.0461,0.0484,0.05,0.0502,0.0549,0.055,0.0552,0.057,0.0569,0.0568,0.0567,0.0677,0.0682,0.0687,0.0739,0,0,0.0704,0.0706,0,0,0,0,0,0,0,0,0.0493,0.0497,0.0497,0.0499,0.0501,0.0548,0.0582,0.0616,0.057,0.0548,0.0568,0.0567,0.0638,0.0647,0.0665,0.0744,0.0749,0.0704,0.0707,0.071,0.0711,0,0,0,0,0,0,0,0.0491,0.0495,0.0513,0.0498,0.05,0.0532,0.0536,0.0589,0.0601,0.0549,0.055,0.0553,0.064,0.066,0.0668,0.0751,0.0704,0.0709,0.0712,0.0714,0.0851,0.0852,0,0,0,0,0,0,0.0473,0.0492,0.0511,0.0515,0.0491,0.0533,0.0537,0.0536,0.0599,0.0607,0.0553,0.0553,0.0651,0.0661,0.0672,0.0691,0.071,0.0715,0.0718,0.0851,0.0851,0.0852,0,0,0,0,0,0,0.0473,0.0474,0.0508,0.0503,0.0509,0.0533,0.0533,0.0538,0.0535,0.0601,0.061,0.0542,0.0651,0.0664,0.0697,0.0697,0.0717,0.0722,0.085,0.0851,0.0852,0.076,0,0,0,0,0,0,0.0472,0.0474,0.0464,0.0501,0.0508,0.0515,0.0534,0.054,0.0538,0.0538,0.0595,0.0606,0.0651,0.0688,0.0702,0.0705,0.0726,0.085,0.0851,0.0851,0.0762,0.0757,0.0753,0,0,0,0,0,0.0471,0.0458,0.0464,0.0466,0.0495,0.0514,0.0521,0.0538,0.0538,0.0533,0.0569,0.0603,0.0704,0.0692,0.0708,0.0713,0.0849,0.085,0.0851,0.0765,0.0758,0.0753,0,0,0,0,0,0,0.0448,0.046,0.0466,0.0459,0.0475,0.0515,0.0513,0.0524,0.055,0.0547,0.0604,0.0618,0.0645,0.0696,0.0682,0.0758,0.0785,0.0789,0.0714,0.0708,0.0704,0.0665,0.073,0,0,0,0,0,0.0437,0.0427,0.0451,0.0444,0.0447,0.0476,0.0484,0.0495,0.0524,0.0532,0.0564,0.0615,0.0669,0.0697,0.0743,0.0787,0.0815,0.0804,0.0799,0.0795,0.0776,0.0864,0.0865,0.0855,0.0855,0.0855,0,0,0.0429,0.0432,0.0428,0.0438,0.0452,0.046,0.0478,0.048,0.0487,0.0544,0.0551,0.0591,0.0673,0.0712,0.0732,0.0752,0.08,0.0796,0.0791,0.0775,0.0865,0.0866,0.0866,0.0856,0.0856,0.0855,0,0,0.0409,0.0406,0.0393,0.0402,0.041,0.0433,0.0424,0.0445,0.045,0.0465,0.0513,0.0553,0.0614,0.0682,0.0727,0.0733,0.0764,0.0742,0.0697,0.0783,0.0784,0.0785,0.0758,0.0758,0.0751,0.075,0.075,0,0.04,0.0387,0.0394,0.0387,0.0392,0.0413,0.041,0.0428,0.0452,0.0463,0.045,0.055,0.0609,0.0694,0.0678,0.0723,0.0728,0.0707,0.0774,0.0777,0.078,0.0753,0.0754,0.0746,0.0747,0.0747,0.0748,0,0.0377,0.0365,0.0357,0.0357,0.0363,0.0361,0.0385,0.0382,0.0382,0.0407,0.0443,0.0512,0.0574,0.0603,0.0632,0.0691,0.0667,0.0747,0.078,0.0775,0.0747,0.0749,0.074,0.0742,0.0743,0.0744,0,0,0.0362,0.0345,0.034,0.0333,0.0345,0.0348,0.0354,0.0376,0.0383,0.0396,0.0416,0.0488,0.0502,0.0553,0.0611,0.0669,0.067,0.0687,0.0694,0.064,0.0757,0.0658,0.0652,0.0756,0.0757,0.0759,0.0704,0,0.0344,0.0315,0.0318,0.0304,0.0296,0.0315,0.0323,0.0345,0.036,0.038,0.045,0.0483,0.0498,0.0512,0.0573,0.0658,0.0682,0.067,0.0787,0.0788,0.0689,0.0656,0.082,0.078,0.0707,0.0707,0.0708,0,0.0324,0.0305,0.0278,0.0273,0.0272,0.0265,0.0277,0.0286,0.0334,0.0339,0.0379,0.0426,0.0486,0.0514,0.062,0.06,0.0644,0.0703,0.0706,0.0649,0.0697,0.079,0.0788,0.0713,0.0713,0.0712,0.0712,0,0.0305,0.0282,0.0253,0.025,0.0249,0.0233,0.0231,0.0263,0.0274,0.0303,0.0312,0.0394,0.0426,0.0515,0.0573,0.0602,0.0673,0.0766,0.0708,0.0698,0.0879,0.0882,0.0839,0.0839,0.0839,0.0839,0.0839,0,0.029,0.0273,0.023,0.0215,0.0188,0.0191,0.0176,0.0184,0.021,0.0229,0.0276,0.0304,0.043,0.0483,0.055,0.0584,0.0658,0.066,0.069,0.0841,0.0841,0.0842,0.0843,0.0837,0.0837,0.0838,0.0838,0,0.0289,0.0259,0.0228,0.0191,0.0175,0.0149,0.0129,0.0129,0.0138,0.0162,0.0163,0.0236,0.0269,0.0353,0.0483,0.0539,0.0608,0.0606,0.0689,0.0728,0.0572,0.057,0.055,0.0546,0.0543,0.0541,0.0538,0,0.03,0.0272,0.0203,0.0172,0.0148,0.0106,0.0087,0.0083,0.0092,0.0122,0.0144,0.0161,0.0169,0.0248,0.037,0.0426,0.0475,0.0608,0.0719,0.0517,0.0549,0.0551,0.0553,0.0907,0.0908,0.0909,0.0909,0,0.0328,0.0283,0.025,0.0167,0.0119,0.0082,0.0053,0.0052,0.0059,0.0067,0.0075,0.0067,0.0124,0.029,0.0338,0.0403,0.061,0.0618,0.0472,0.0919,0.0841,0.0875,0.0869,0.0917,0.0916,0.0915,0.0915,0.0915,0.0359,0.033,0.0257,0.0186,0.0121,0.0068,0.0041,0.0019,0.0008,0.001,0.002,0.011,0.0255,0.0408,0.0416,0.0507,0.0522,0.0696,0.0701,0.0704,0.072,0.0638,0.0672,0.067,0.0668,0.0667,0.0665,0,0.0424,0.036,0.0288,0.0201,0.0131,0.0081,0.0036,0.0013,-0.0018,-0.0017,-0.0046,0.0242,0.0417,0.0547,0.0736,0.0726,0.0755,0.0722,0.0894,0.0892,0.0888,0.0917,0.092,0.0918,0.0917,0.0916,0,0,0.0455,0.0406,0.0349,0.0241,0.016,0.0075,0.0039,-0.0009,-0.0011,-0.0021,0.014,0.0219,0.0521,0.0701,0.0748,0.0864,0.0789,0.0806,0.0636,0.0827,0.0818,0.0951,0.1002,0,0,0,0,0]}],[{"header":{"parameterUnit":"m.s-1","parameterCategory":2,"la1":30.2991,"la2":30.254,"lo1":-89.0895,"lo2":-89.0444,"dy":0.0017,"dx":0.0017,"nx":28,"ny":28,"refTime":"2023-07-19T21:00:00:Z","depth":"4","parameterNumber":2,"parameterNumberName":"U-component_of_CURRENTS"},"data":[0,0,0,0,0,0,0,0,0,0,0,0,0,0,0,0,0,0,0,0,0,0,0,0,0,0,0,0,0,0,0,0,0,0,0,0,0,0,0,0,0,0,0,0,0,0,0,0,0,0,0,0,0,0,0,0,0,0,-0.0637,-0.0638,0,-0.0747,-0.0748,-0.0749,-0.0793,-0.0793,-0.0793,-0.0793,-0.0871,-0.0873,-0.0875,0,0,0,0,0,0,0,0,0,0,0,0,0,-0.0542,-0.0543,-0.0637,-0.0638,-0.064,-0.0747,-0.0748,-0.075,-0.0793,-0.0793,-0.0793,-0.0793,-0.087,-0.0873,-0.0876,0,0,0,0,0,0,0,0,0,0,0,0,0,-0.0609,-0.0543,-0.0636,-0.0676,-0.0681,-0.0747,-0.0748,-0.075,-0.0793,-0.0793,-0.0793,-0.0793,-0.087,-0.0873,-0.0876,-0.0898,0,0,-0.0886,-0.0887,0,0,0,0,0,0,0,0,-0.0605,-0.0612,-0.0669,-0.0674,-0.0679,-0.0758,-0.0744,-0.0799,-0.0793,-0.0748,-0.0793,-0.0793,-0.0832,-0.0838,-0.0857,-0.0902,-0.0905,-0.0886,-0.0888,-0.0889,-0.089,0,0,0,0,0,0,0,-0.06,-0.0608,-0.0678,-0.067,-0.0677,-0.0716,-0.0724,-0.0755,-0.0787,-0.0752,-0.0756,-0.0772,-0.0834,-0.0853,-0.0859,-0.0906,-0.0886,-0.0889,-0.0891,-0.0892,-0.1041,-0.1043,0,0,0,0,0,0,-0.0587,-0.0603,-0.0675,-0.0682,-0.0644,-0.0717,-0.0727,-0.0731,-0.0788,-0.0797,-0.0772,-0.0774,-0.0848,-0.0855,-0.0862,-0.0919,-0.0889,-0.0892,-0.0894,-0.1039,-0.1042,-0.1044,0,0,0,0,0,0,-0.0584,-0.0592,-0.067,-0.0647,-0.066,-0.0719,-0.0724,-0.0734,-0.0768,-0.0804,-0.0812,-0.0799,-0.0848,-0.0857,-0.0912,-0.0921,-0.0894,-0.0897,-0.1037,-0.104,-0.1043,-0.1015,0,0,0,0,0,0,-0.0581,-0.059,-0.0602,-0.0646,-0.0661,-0.0709,-0.0725,-0.0736,-0.0778,-0.0782,-0.0829,-0.0835,-0.0849,-0.0908,-0.0916,-0.0925,-0.0899,-0.1034,-0.1038,-0.1042,-0.1013,-0.1017,-0.102,0,0,0,0,0,-0.0577,-0.0592,-0.0601,-0.0611,-0.0671,-0.0709,-0.072,-0.0761,-0.078,-0.0792,-0.0838,-0.0834,-0.0938,-0.0912,-0.0921,-0.0931,-0.1032,-0.1037,-0.1042,-0.1012,-0.1016,-0.102,0,0,0,0,0,0,-0.0565,-0.0599,-0.061,-0.0637,-0.0669,-0.0717,-0.0748,-0.077,-0.0818,-0.084,-0.0859,-0.0869,-0.0917,-0.0942,-0.0913,-0.0991,-0.0985,-0.0992,-0.096,-0.0964,-0.0967,-0.0972,-0.0902,0,0,0,0,0,-0.0565,-0.0577,-0.0617,-0.0638,-0.066,-0.0706,-0.0734,-0.0765,-0.081,-0.0832,-0.0864,-0.0911,-0.0943,-0.0967,-0.1002,-0.1047,-0.1049,-0.1064,-0.1067,-0.1069,-0.1084,-0.1099,-0.1103,-0.1059,-0.1059,-0.1059,0,0,-0.0564,-0.0588,-0.0595,-0.0636,-0.0672,-0.0703,-0.0723,-0.0778,-0.0806,-0.0834,-0.0891,-0.0921,-0.0959,-0.1004,-0.1029,-0.1026,-0.108,-0.1075,-0.1076,-0.109,-0.1104,-0.1108,-0.1111,-0.1062,-0.1062,-0.1061,0,0,-0.057,-0.0595,-0.0609,-0.0638,-0.0698,-0.0725,-0.074,-0.0801,-0.0832,-0.0891,-0.0914,-0.0958,-0.1016,-0.1039,-0.1056,-0.1106,-0.1093,-0.1119,-0.1139,-0.1152,-0.1155,-0.1157,-0.1136,-0.1137,-0.1124,-0.1124,-0.1124,0,-0.0577,-0.0592,-0.0621,-0.065,-0.068,-0.073,-0.0761,-0.0798,-0.0869,-0.0894,-0.0911,-0.1006,-0.103,-0.1073,-0.1093,-0.1107,-0.1107,-0.1109,-0.1151,-0.1154,-0.1157,-0.1135,-0.1137,-0.1123,-0.1123,-0.1123,-0.1123,0,-0.0589,-0.0611,-0.0629,-0.0668,-0.0702,-0.0743,-0.0794,-0.0835,-0.0882,-0.0914,-0.0982,-0.1031,-0.1082,-0.1095,-0.111,-0.1149,-0.1136,-0.1142,-0.1127,-0.1159,-0.1135,-0.1136,-0.1122,-0.1122,-0.1122,-0.1122,0,0,-0.0585,-0.0626,-0.0637,-0.0648,-0.0721,-0.0745,-0.08,-0.0849,-0.0877,-0.0953,-0.0986,-0.106,-0.1092,-0.1118,-0.1143,-0.1168,-0.1172,-0.1171,-0.1172,-0.1125,-0.1179,-0.1003,-0.0988,-0.1182,-0.1183,-0.1184,-0.1141,0,-0.0591,-0.0621,-0.0653,-0.0686,-0.0705,-0.0764,-0.0794,-0.085,-0.0904,-0.0944,-0.1011,-0.1065,-0.1096,-0.1132,-0.1156,-0.1177,-0.1182,-0.1182,-0.1179,-0.1179,-0.0998,-0.0986,-0.1187,-0.1142,-0.1142,-0.1142,-0.1143,0,-0.0595,-0.0613,-0.0648,-0.0675,-0.0693,-0.0725,-0.0786,-0.082,-0.0887,-0.0933,-0.1005,-0.106,-0.1124,-0.1144,-0.1191,-0.119,-0.1187,-0.1198,-0.1196,-0.1048,-0.1007,-0.1117,-0.1146,-0.1146,-0.1145,-0.1145,-0.1145,0,-0.0562,-0.0604,-0.0625,-0.0644,-0.0693,-0.0726,-0.0754,-0.0823,-0.0864,-0.094,-0.0972,-0.1059,-0.1105,-0.1141,-0.1168,-0.119,-0.1185,-0.121,-0.1044,-0.1031,-0.1214,-0.1213,-0.1227,-0.1227,-0.1227,-0.1227,-0.1227,0,-0.0546,-0.0564,-0.0612,-0.0627,-0.064,-0.0697,-0.0742,-0.077,-0.0853,-0.0858,-0.0964,-0.0968,-0.1113,-0.1128,-0.1149,-0.1075,-0.1165,-0.1036,-0.1007,-0.1201,-0.1199,-0.1213,-0.1212,-0.1226,-0.1226,-0.1226,-0.1227,0,-0.0514,-0.0545,-0.0559,-0.0612,-0.0625,-0.0637,-0.0725,-0.0742,-0.0824,-0.0835,-0.0869,-0.0937,-0.0911,-0.0997,-0.1035,-0.1022,-0.0995,-0.0943,-0.1112,-0.1096,-0.084,-0.0839,-0.0766,-0.0759,-0.0754,-0.0749,-0.0745,0,-0.0501,-0.051,-0.0539,-0.0531,-0.0562,-0.0605,-0.0615,-0.0713,-0.0726,-0.0762,-0.0725,-0.0756,-0.0769,-0.0702,-0.0772,-0.0782,-0.078,-0.0796,-0.0858,-0.0813,-0.0793,-0.0801,-0.0807,-0.0736,-0.0735,-0.0733,-0.0732,0,-0.0469,-0.0485,-0.0499,-0.0481,-0.0486,-0.049,-0.0512,-0.0546,-0.0606,-0.0673,-0.0608,-0.0614,-0.0541,-0.0573,-0.0587,-0.0591,-0.0816,-0.0738,-0.0752,-0.0811,-0.0776,-0.0764,-0.0777,-0.0713,-0.0715,-0.0717,-0.0718,0,-0.0451,-0.044,-0.0443,-0.0438,-0.0406,-0.0367,-0.0413,-0.0415,-0.046,-0.0521,-0.0459,-0.0448,-0.0493,-0.0459,-0.0441,-0.0454,-0.0465,-0.0525,-0.055,-0.0572,-0.0526,-0.0456,-0.0254,0,0,0,0,0,-0.0425,-0.0415,-0.039,-0.0356,-0.0314,-0.0301,-0.0318,-0.0374,-0.0434,-0.0366,-0.0447,-0.0364,-0.0335,-0.0323,-0.0296,-0.0319,-0.0461,-0.0285,-0.0543,-0.0605,-0.0628,-0.0591,0,0,0,0,0,0,-0.0406,-0.0384,-0.0379,-0.0286,-0.0251,-0.0196,-0.0213,-0.0254,-0.0248,-0.0309,-0.0293,-0.0328,-0.0301,-0.0338,-0.028,-0.028,-0.0435,-0.029,-0.0289,-0.0593,-0.0613,-0.0631,-0.0601,0,0,0,0,0]},{"header":{"parameterUnit":"m.s-1","parameterCategory":2,"la1":30.2991,"la2":30.254,"lo1":-89.0895,"lo2":-89.0444,"dy":0.0017,"dx":0.0017,"nx":28,"ny":28,"refTime":"2023-07-19T21:00:00:Z","depth":"4","parameterNumber":3,"parameterNumberName":"V-component_of_CURRENTS"},"data":[0,0,0,0,0,0,0,0,0,0,0,0,0,0,0,0,0,0,0,0,0,0,0,0,0,0,0,0,0,0,0,0,0,0,0,0,0,0,0,0,0,0,0,0,0,0,0,0,0,0,0,0,0,0,0,0,0,0,-0.0477,-0.0477,0,-0.0488,-0.0489,-0.0489,-0.0507,-0.0508,-0.0508,-0.0508,-0.0496,-0.0495,-0.0495,0,0,0,0,0,0,0,0,0,0,0,0,0,-0.0469,-0.0469,-0.0477,-0.0477,-0.0477,-0.0488,-0.0489,-0.0489,-0.0507,-0.0508,-0.0508,-0.0508,-0.0496,-0.0495,-0.0495,0,0,0,0,0,0,0,0,0,0,0,0,0,-0.0477,-0.0469,-0.0477,-0.0486,-0.0487,-0.0488,-0.0489,-0.0489,-0.0507,-0.0508,-0.0508,-0.0508,-0.0496,-0.0496,-0.0495,-0.0486,0,0,-0.0493,-0.0493,0,0,0,0,0,0,0,0,-0.0477,-0.0478,-0.0485,-0.0485,-0.0486,-0.0495,-0.0481,-0.0486,-0.0507,-0.0502,-0.0508,-0.0508,-0.0492,-0.0491,-0.0497,-0.0486,-0.0485,-0.0493,-0.0492,-0.0492,-0.0492,0,0,0,0,0,0,0,-0.0476,-0.0477,-0.0484,-0.0485,-0.0486,-0.0488,-0.049,-0.0482,-0.0497,-0.0502,-0.0503,-0.0501,-0.0492,-0.0497,-0.0496,-0.0485,-0.0493,-0.0492,-0.0492,-0.0491,-0.0482,-0.0482,0,0,0,0,0,0,-0.047,-0.0477,-0.0483,-0.0484,-0.0479,-0.0488,-0.049,-0.0494,-0.0497,-0.0498,-0.0501,-0.0502,-0.0498,-0.0497,-0.0496,-0.0513,-0.0492,-0.0491,-0.0491,-0.0482,-0.0482,-0.0482,0,0,0,0,0,0,-0.047,-0.0471,-0.0483,-0.0479,-0.048,-0.0488,-0.0492,-0.0494,-0.0506,-0.0496,-0.0496,-0.0511,-0.0498,-0.0497,-0.0493,-0.0511,-0.0491,-0.049,-0.0482,-0.0482,-0.0482,-0.0528,0,0,0,0,0,0,-0.047,-0.0471,-0.0479,-0.0478,-0.048,-0.0491,-0.0491,-0.0494,-0.0502,-0.0504,-0.0505,-0.0504,-0.0498,-0.0495,-0.0493,-0.051,-0.049,-0.0482,-0.0482,-0.0482,-0.0527,-0.053,-0.0533,0,0,0,0,0,-0.047,-0.0476,-0.0479,-0.048,-0.0488,-0.0491,-0.0492,-0.0499,-0.0503,-0.0511,-0.0508,-0.0504,-0.0495,-0.0494,-0.0492,-0.0509,-0.0481,-0.0482,-0.0482,-0.0525,-0.053,-0.0533,0,0,0,0,0,0,-0.0477,-0.0478,-0.0482,-0.0489,-0.0492,-0.0493,-0.0502,-0.0503,-0.0509,-0.0516,-0.0504,-0.0502,-0.0509,-0.0496,-0.0495,-0.0506,-0.0489,-0.0489,-0.0522,-0.0526,-0.0529,-0.053,-0.0489,0,0,0,0,0,-0.0481,-0.0487,-0.0487,-0.0494,-0.0497,-0.0501,-0.0505,-0.0513,-0.0513,-0.0517,-0.0514,-0.051,-0.0507,-0.0506,-0.0503,-0.0504,-0.0469,-0.0513,-0.0517,-0.052,-0.0518,-0.0479,-0.0478,-0.0483,-0.0483,-0.0483,0,0,-0.0489,-0.0487,-0.0493,-0.0497,-0.0502,-0.0514,-0.0506,-0.0519,-0.0536,-0.0513,-0.0534,-0.0523,-0.051,-0.0518,-0.0519,-0.051,-0.0497,-0.052,-0.0523,-0.0519,-0.0479,-0.0478,-0.0478,-0.0484,-0.0484,-0.0484,0,0,-0.0496,-0.0504,-0.051,-0.0518,-0.0526,-0.053,-0.0535,-0.0542,-0.0556,-0.0568,-0.0557,-0.0552,-0.0551,-0.0543,-0.0539,-0.0554,-0.0516,-0.0555,-0.0573,-0.0535,-0.0534,-0.0533,-0.0476,-0.047,-0.0555,-0.0556,-0.0556,0,-0.0501,-0.0513,-0.0512,-0.0522,-0.0535,-0.0538,-0.0556,-0.0569,-0.0576,-0.0589,-0.0583,-0.0575,-0.0565,-0.0565,-0.0571,-0.0564,-0.0524,-0.0563,-0.054,-0.0538,-0.0536,-0.0478,-0.047,-0.0558,-0.0558,-0.0557,-0.0557,0,-0.0511,-0.053,-0.0536,-0.0552,-0.0565,-0.0584,-0.0599,-0.0617,-0.063,-0.0641,-0.0649,-0.0626,-0.0619,-0.0615,-0.0599,-0.0584,-0.0553,-0.055,-0.0531,-0.0538,-0.0476,-0.0467,-0.0561,-0.056,-0.056,-0.0559,0,0,-0.0498,-0.0535,-0.054,-0.0563,-0.0589,-0.0601,-0.0635,-0.0663,-0.0689,-0.069,-0.0707,-0.0695,-0.0678,-0.0669,-0.0642,-0.0605,-0.0555,-0.0571,-0.0568,-0.0517,-0.0449,-0.0408,-0.0394,-0.0544,-0.0543,-0.0542,-0.0407,0,-0.0508,-0.0533,-0.0553,-0.0598,-0.0618,-0.0646,-0.0674,-0.0705,-0.0729,-0.0746,-0.0727,-0.0735,-0.0701,-0.0696,-0.0653,-0.0588,-0.0535,-0.0591,-0.0447,-0.0443,-0.0408,-0.0384,-0.0539,-0.04,-0.0398,-0.0396,-0.0395,0,-0.0511,-0.0531,-0.0572,-0.0629,-0.0641,-0.0673,-0.0729,-0.0755,-0.0786,-0.0803,-0.0801,-0.0788,-0.0746,-0.0713,-0.0589,-0.0623,-0.0536,-0.0474,-0.0467,-0.0407,-0.0386,-0.0393,-0.0378,-0.0379,-0.0381,-0.0382,-0.0383,0,-0.0501,-0.0549,-0.0586,-0.0606,-0.0663,-0.0701,-0.0732,-0.0777,-0.0811,-0.084,-0.0854,-0.0813,-0.0779,-0.0683,-0.0557,-0.0573,-0.0397,-0.0411,-0.0282,-0.0278,-0.0336,-0.0339,-0.0306,-0.0306,-0.0306,-0.0306,-0.0307,0,-0.0504,-0.0539,-0.0591,-0.0618,-0.067,-0.0708,-0.0776,-0.0802,-0.0846,-0.0856,-0.0875,-0.0843,-0.0767,-0.0666,-0.0556,-0.0378,-0.0393,-0.0271,-0.0239,-0.0357,-0.0363,-0.0328,-0.0333,-0.0301,-0.0302,-0.0303,-0.0304,0,-0.0497,-0.053,-0.058,-0.0646,-0.0672,-0.0711,-0.0803,-0.084,-0.0881,-0.0887,-0.0894,-0.086,-0.0726,-0.0625,-0.0452,-0.0367,-0.0218,-0.0145,-0.0255,-0.0234,-0.0124,-0.0132,-0.0009,-0.0006,-0.0004,-0.0002,-0.0001,0,-0.0499,-0.0522,-0.0594,-0.0629,-0.067,-0.0741,-0.0783,-0.0849,-0.0864,-0.0861,-0.0828,-0.0753,-0.0699,-0.0418,-0.0333,-0.0137,-0.0106,-0.0038,-0.0104,-0.0111,-0.0093,-0.0105,-0.0116,0.0003,0.0003,0.0004,0.0005,0,-0.0502,-0.053,-0.0569,-0.0622,-0.0679,-0.0742,-0.0789,-0.0802,-0.0828,-0.0864,-0.0736,-0.0646,-0.0491,-0.0352,-0.0208,-0.0066,-0.0104,-0.0016,-0.002,-0.0082,-0.0095,-0.0082,-0.0096,0.0012,0.0011,0.001,0.001,0,-0.0508,-0.0528,-0.0567,-0.062,-0.0672,-0.0704,-0.0752,-0.0731,-0.0748,-0.0715,-0.0648,-0.0538,-0.0479,-0.0308,-0.0161,-0.0046,-0.003,-0.0002,-0.0007,-0.0015,-0.0076,-0.0099,0.0051,0,0,0,0,0,-0.0505,-0.0525,-0.0562,-0.0616,-0.0658,-0.069,-0.0725,-0.076,-0.0761,-0.0644,-0.0648,-0.0492,-0.0309,-0.0249,-0.0117,-0.0154,-0.0041,-0.0001,-0.0018,0.0054,0.0045,-0.0025,0,0,0,0,0,0,-0.0512,-0.0537,-0.055,-0.0585,-0.0621,-0.0667,-0.069,-0.07,-0.0627,-0.0607,-0.0499,-0.0458,-0.0282,-0.0372,-0.0112,-0.0086,-0.0078,0.0074,0.0077,0.0059,0.0051,0.0044,-0.0031,0,0,0,0,0]}]]